Weather History for Rockport, TX

Change the Weather History Date:

Friday, February 15, 2013

  Actual Average Record
Temperature  
Mean Temperature 61 °F -  
Max Temperature 69 °F 68 °F 87 °F (1962)
Min Temperature 53 °F 52 °F 34 °F (2004)
Degree Days  
Heating Degree Days 4    
Growing Degree Days 11 (Base 50)    
Moisture  
Dew Point 49 °F    
Average Humidity 67    
Maximum Humidity 93    
Minimum Humidity 42    
Precipitation  
Precipitation 0.00 in - - ()
Sea Level Pressure  
Sea Level Pressure 30.16 in    
Wind  
Wind Speed 10 mph (East)    
Max Wind Speed 18 mph    
Max Gust Speed 29 mph    
Visibility 10 miles    
Events      
Averages and records for this station are not official NWS values.
T = Trace of Precipitation, MM = Missing Value Source: NWS Daily Summary

Daily Weather History Graph

Daily Weather History Graph

Search for Another Location

Airport:

Trip Planner

Search our weather history database for the weather conditions in past years. The results will help you decide how hot, cold, wet, or windy it might be!

Date:

Astronomy

Feb. 15, 2013 Rise Set
Actual Time 7:05 AM CST 6:19 PM CST
Civil Twilight 6:41 AM CST 6:43 PM CST
Nautical Twilight 6:14 AM CST 7:10 PM CST
Astronomical Twilight 5:46 AM CST 7:38 PM CST
Moon 10:15 AM CST (2/15) 11:45 PM CST (2/15)
Length of Visible Light 12h 01m
Length of Day
11h 13m
Waxing Crescent, 30% of the Moon is Illuminated
Feb 15
Waxing Crescent
Feb 17
First Quarter
Feb 25
Full
Mar 4
Last Quarter
Mar 11
New

Hourly Weather History & Observations

Time (CST) Temp. Dew Point Humidity Pressure Visibility Wind Dir Wind Speed Gust Speed Precip Events Conditions
12:53 AM 59.0 °F 48.9 °F 69% 30.07 in 10.0 mi ESE 12.7 mph - N/A   Clear
1:53 AM 59.0 °F 50.0 °F 72% 30.09 in 10.0 mi ESE 9.2 mph - N/A   Clear
2:53 AM 59.0 °F 50.0 °F 72% 30.08 in 10.0 mi ESE 9.2 mph - N/A   Clear
3:53 AM 55.9 °F 51.1 °F 84% 30.09 in 10.0 mi East 5.8 mph - N/A   Clear
4:53 AM 55.9 °F 52.0 °F 87% 30.10 in 10.0 mi East 4.6 mph - N/A   Clear
5:53 AM 54.0 °F 51.1 °F 90% 30.11 in 10.0 mi ESE 3.5 mph - N/A   Clear
6:53 AM 53.1 °F 51.1 °F 93% 30.12 in 10.0 mi East 4.6 mph - N/A   Clear
7:53 AM 57.9 °F 55.9 °F 93% 30.14 in 10.0 mi NE 3.5 mph - N/A   Clear
8:53 AM 63.0 °F 54.0 °F 72% 30.17 in 10.0 mi ENE 8.1 mph - N/A   Clear
9:53 AM 64.9 °F 54.0 °F 68% 30.18 in 10.0 mi ENE 10.4 mph - N/A   Clear
10:53 AM 66.9 °F 53.1 °F 61% 30.19 in 10.0 mi ENE 12.7 mph - N/A   Clear
11:53 AM 68.0 °F 52.0 °F 56% 30.20 in 10.0 mi ENE 11.5 mph - N/A   Clear
1:53 PM 69.1 °F 48.9 °F 49% 30.15 in 10.0 mi East 13.8 mph - N/A   Clear
2:53 PM 69.1 °F 48.0 °F 47% 30.14 in 10.0 mi East 13.8 mph - N/A   Clear
3:53 PM 68.0 °F 44.1 °F 42% 30.13 in 10.0 mi East 13.8 mph - N/A   Clear
4:53 PM 66.0 °F 45.0 °F 47% 30.14 in 10.0 mi East 12.7 mph - N/A   Clear
5:53 PM 62.1 °F 46.9 °F 58% 30.15 in 10.0 mi ESE 10.4 mph - N/A   Clear
6:53 PM 60.1 °F 48.9 °F 67% 30.18 in 10.0 mi ESE 8.1 mph - N/A   Clear
7:53 PM 61.0 °F 48.0 °F 62% 30.20 in 10.0 mi East 9.2 mph - N/A   Overcast
8:53 PM 61.0 °F 48.0 °F 62% 30.22 in 10.0 mi East 6.9 mph - N/A   Overcast
9:53 PM 59.0 °F 45.0 °F 60% 30.27 in 10.0 mi NNE 13.8 mph - N/A   Clear
10:53 PM 55.9 °F 41.0 °F 57% 30.31 in 10.0 mi NNE 18.4 mph 28.8 mph N/A   Scattered Clouds
11:53 PM 55.0 °F 42.1 °F 62% 30.33 in 10.0 mi NNE 16.1 mph 21.9 mph N/A   Overcast